CZ-6A DEB

Satellite information

Favourite Embed

Satellite Type and Status

DEBRISIN ORBIT

Key statistics

Satellite CZ-6A DEB at a glance.

Uptime

969

Days in orbit

Revolutions

≈ 14.1

Per day

Orbit

SSO

Sun Synchronous Orbit

Inclination

98.8

Latest

Satellite identification and parameters

Extended collection of information and parameters for CZ-6A DEB.

Object identification

Identified? True

Debris? True

Object name: CZ-6A DEB

International designator: 2022-151KE

Object number (NORAD): 54526

Object ID (CCSDS): 54526

Country: PEOPLES REPUBLIC OF CHINA (PRC)

Current information (Y/N): Y

RCS size: MEDIUM

Orbital parameters

Period: 102.145 minutes

Inclination: 98.8256 deg

SMA: 7238.315 km

Apoapsis: 898.8 km

Periapsis: 821.561 km

RAAN: 187.532 deg

Eccentricy: 0.0053354

Argument of periapsis: 256.9804 deg

Mean anomaly: 102.5406 deg

Mean motion: 14.09764356 rev/day

Mean motion (dot): 0.0000023 rev/day2

B* drag term: 0.00015416 1/REarth

Two-line elements (TLE)

Creation date: July 6, 2025, 11:06 p.m.

Reference frame: TEME

Reference center: EARTH

Epoch: July 6, 2025, 2:21 p.m. UTC

TLE line 0: 0 CZ-6A DEB

TLE line 1: 1 54526U 22151KE 25187.59804636 .00000230 00000-0 15416-3 0 9992

TLE line 2: 2 54526 98.8256 187.5320 0053354 256.9804 102.5406 14.09764356135992

Live tracking on map

Real-time ground track for satellite CZ-6A DEB.

In-orbit conjunctions

A list of the most updated potential collisions computed for object CZ-6A DEB.

Target Orbit TCA Probability of collision Miss distance Type
P/L 153 DEB LEO 2025-04-20 11:16:49 0.0002864102 82.0 (m) DEBRIS

Associated space launch

Chinese satellite reported for atmospheric/ocean/environmental/spatial parameter research purposes, details TBD.

CZ-6A DEB was lifted into orbit during the mission ‘Long March 6A | Yunhai 3’, on board a Long March 6A space rocket.

The launch took place on Nov. 11, 2022, 10:52 p.m. from Launch Complex 9A.

For more information about the launch, click the button.

Launch to space Long March 6A | Yunhai 3
Long March 6A | Yunhai 3

Agency: N/A

Status: Launch Successful

Launch date: Nov. 11, 2022, 10:52 p.m. UTC

Rocket: Long March 6A

Launch pad: Launch Complex 9A

Location: Taiyuan Satellite Launch Center, People's Republic of China

...

Latest news about this satellite

There are no fresh news available about this satellite. Check back as we update our databases every day.


Newsletter sign-up

Weekly statistics, charts and insights to help you stay on top of the space industry.